Regional Weather Roundup
Issued by NWS

Home | Current Version | Previous Version | Graphics & Text | Print | Product List | Glossary On
Versions: 1 2 3 4 5 6 7 8 9 10 11 12 13 14 15 16 17 18 19 20 21 22 23 24 25 26 27 28 29 30 31 32 33 34 35 36 37 38 39 40 41 42 43 44 45 46 47 48 49 50
318
ASUS43 KMKX 250021
RWRWI

WISCONSIN REGIONAL WEATHER ROUNDUP
NATIONAL WEATHER SERVICE MILWAUKEE/SULLIVAN WI
700 PM CDT FRI MAR 24 2017

NOTE: "FAIR" INDICATES FEW OR NO CLOUDS BELOW 12,000 FEET WITH NO
SIGNIFICANT WEATHER AND/OR OBSTRUCTIONS TO VISIBILITY.

WIZ001-002-006>008-014>016-023>028-250100-
NORTHWEST WISCONSIN

CITY           SKY/WX    TMP DP  RH WIND       PRES   REMARKS
SUPERIOR ARPT  CLOUDY    36  33  87 N5        30.20R WCI  32
6HR MIN TEMP:  36; 6HR MAX TEMP:  39;

ASHLAND        CLOUDY    36  31  82 NE10      30.21R WCI  28
6HR MIN TEMP:  36; 6HR MAX TEMP:  39;

HAYWARD        CLOUDY    38  30  73 NE10      30.14S WCI  31
6HR MIN TEMP:  38; 6HR MAX TEMP:  41;

SIREN          CLOUDY    38  32  78 NE7       30.15S WCI  33
6HR MIN TEMP:  38; 6HR MAX TEMP:  41;

CUMBERLAND     CLOUDY    36  32  87 N9        30.13R WCI  29
RICE LAKE      CLOUDY    38  33  82 NE10      30.15R WCI  31
6HR MIN TEMP:  38; 6HR MAX TEMP:  41;

CHETEK         CLOUDY    38  33  84 NE7       30.14R WCI  32
6HR MIN TEMP:  38; 6HR MAX TEMP:  41;

LADYSMITH      CLOUDY    38  34  84 NE12G17   30.14R WCI  31
6HR MIN TEMP:  38; 6HR MAX TEMP:  40;

EAU CLAIRE     CLOUDY    40  35  83 NE10      30.10R WCI  33
6HR MIN TEMP:  39; 6HR MAX TEMP:  42; 6HR PCP:  0.01;

MENOMONIE      CLOUDY    41  36  81 NE12G17   30.10S
6HR MIN TEMP:  40; 6HR MAX TEMP:  45;

NEW RICHMOND   CLOUDY    39  33  79 NE12      30.13R WCI  32
6HR MIN TEMP:  39; 6HR MAX TEMP:  43;

OSCEOLA        CLOUDY    40  34  78 N10       30.17R WCI  33
6HR MIN TEMP:  40; 6HR MAX TEMP:  44;

$$

WIZ003>005-009-010-017-018-250100-
NORTH CENTRAL WISCONSIN

CITY           SKY/WX    TMP DP  RH WIND       PRES   REMARKS
MANITOWISH WTR CLOUDY    33  33 100 N6        30.14R WCI  28
6HR MIN TEMP:  33; 6HR MAX TEMP:  35;

ARBOR VITAE    CLOUDY    37  35  92 N5        30.12S WCI  33
6HR MIN TEMP:  37; 6HR MAX TEMP:  37;

WOODRUFF       CLOUDY    37  35  92 N5        30.12S WCI  33
6HR MIN TEMP:  37; 6HR MAX TEMP:  37;

RHINELANDER    CLOUDY    36  34  92 NE8       30.12R FOG     WCI  30
6HR MIN TEMP:  36; 6HR MAX TEMP:  37; 6HR PCP: TRACE;

EAGLE RIVER    CLOUDY    34  34  99 NE8       30.13R FOG     WCI  27
6HR MIN TEMP:  33; 6HR MAX TEMP:  35;

LAND O LAKES   CLOUDY    35  35 100 NE5       30.15R FOG     WCI  31
6HR MIN TEMP:  33; 6HR MAX TEMP:  35; 6HR PCP:  0.01;

PHILLIPS       CLOUDY    35  34  95 N8        30.11F WCI  29
6HR MIN TEMP:  35; 6HR MAX TEMP:  36;

TOMAHAWK       CLOUDY    35  32  88 N8        30.12S FOG     WCI  29
6HR MIN TEMP:  35; 6HR MAX TEMP:  36;

MEDFORD        CLOUDY    36  33  89 NE10      30.10R WCI  28
6HR MIN TEMP:  36; 6HR MAX TEMP:  37; 6HR PCP:  0.02;

MERRILL        CLOUDY    37  36  96 NE8       30.11R FOG     WCI  30
6HR MIN TEMP:  37; 6HR MAX TEMP:  38; 6HR PCP:  0.05;

$$

WIZ029-030-035-036-043>047-250100-
CENTRAL WISCONSIN

CITY           SKY/WX    TMP DP  RH WIND       PRES   REMARKS
WAUSAU         CLOUDY    37  36  96 N6        30.09R WCI  32
6HR MIN TEMP:  37; 6HR MAX TEMP:  39; 6HR PCP:  0.17;

MOSINEE        CLOUDY    37  37 100 NE6       30.10R WCI  33
MARSHFIELD     CLOUDY    38  36  92 NE10      30.07S WCI  31
6HR MIN TEMP:  38; 6HR MAX TEMP:  39; 6HR PCP:  0.08;

STEVENS POINT  DRIZZLE   35  35 100 NE7       30.10S WCI  29
6HR MIN TEMP:  35; 6HR MAX TEMP:  36; 6HR PCP:  0.10;

WAUPACA        RAIN      38  36  91 NE7       30.09S WCI  33
6HR MIN TEMP:  38; 6HR MAX TEMP:  39; 6HR PCP:  0.01;

WAUTOMA        LGT RAIN  37  35  92 NE7       30.09R WCI  32
6HR MIN TEMP:  37; 6HR MAX TEMP:  41; 6HR PCP:  0.17;

WISC RAPIDS    CLOUDY    38  37  97 NE7       30.10R WCI  33
6HR MIN TEMP:  38; 6HR MAX TEMP:  39; 6HR PCP:  0.08;

CAMP DOUGLAS   CLOUDY    37  37 100 NE5       30.08R WCI  34
6HR MIN TEMP:  38; 6HR MAX TEMP:  41; 6HR PCP:  0.05;

$$

WIZ011>013-019>022-031-037>040-048>050-250100-
NORTHEAST WISCONSIN

CITY           SKY/WX    TMP DP  RH WIND       PRES   REMARKS
ANTIGO         CLOUDY    35  34  96 N7        30.10R FOG     WCI  29
6HR MIN TEMP:  35; 6HR MAX TEMP:  36; 6HR PCP:  0.07;

SHAWANO        DRIZZLE   38  36  92 NE6       30.12R WCI  33
6HR MIN TEMP:  37; 6HR MAX TEMP:  39; 6HR PCP:  0.18;

OCONTO         CLOUDY    35  34  96 NE5       30.12R WCI  31
6HR MIN TEMP:  35; 6HR MAX TEMP:  37; 6HR PCP:  0.15;

STURGEON BAY   LGT RAIN  35  34  96 N7        30.13R WCI  29
6HR MIN TEMP:  35; 6HR MAX TEMP:  36; 6HR PCP:  0.26;

GREEN BAY      LGT RAIN  36  36 100 NE13      30.11R WCI  27
6HR MIN TEMP:  36; 6HR MAX TEMP:  38; 6HR PCP:  0.19;

MANITOWOC      LGT RAIN  36  34  92 N9        30.09R WCI  29
6HR MIN TEMP:  36; 6HR MAX TEMP:  43; 6HR PCP:  0.07;

APPLETON       LGT RAIN  36  36 100 NE12      30.07R WCI  27
CLINTONVILLE   RAIN      36  36 100 NE8       30.10R WCI  29
OSHKOSH        LGT RAIN  36  34  92 NE9       30.08R FOG     WCI  29
6HR MIN TEMP:  36; 6HR MAX TEMP:  44; 6HR PCP:  0.05;

$$

WIZ032>034-041-042-053>061-250100-
SOUTHWEST WISCONSIN

CITY           SKY/WX    TMP DP  RH WIND       PRES   REMARKS
LA CROSSE      CLOUDY    43  39  86 N8        30.07R
6HR MIN TEMP:  43; 6HR MAX TEMP:  44;

SPARTA         CLOUDY    39  38  94 E9        30.08R WCI  33
6HR MIN TEMP:  39; 6HR MAX TEMP:  41; 6HR PCP:  0.01;

VIROQUA        CLOUDY    38  38  98 NE13      30.03S WCI  30
6HR MIN TEMP:  38; 6HR MAX TEMP:  45; 6HR PCP:  0.04;

BOSCOBEL       LGT RAIN  43  40  89 NE8       30.04R FOG
6HR MIN TEMP:  44; 6HR MAX TEMP:  58; 6HR PCP:  0.03;

PRAIRIE DU CHI RAIN      43  41  90 N5        30.03R
6HR MIN TEMP:  43; 6HR MAX TEMP:  52; 6HR PCP:  0.10;

PLATTEVILLE    CLOUDY    47  45  91 N13       30.00R
6HR MIN TEMP:  47; 6HR MAX TEMP:  68;

$$

WIZ056-057-062-063-064-067-068-250100-
SOUTH CENTRAL WISCONSIN

CITY           SKY/WX    TMP DP  RH WIND       PRES   REMARKS
REEDSBURG      RAIN      38  38 100 NE9       30.05R WCI  31
6HR MIN TEMP:  38; 6HR MAX TEMP:  53; 6HR PCP:  0.02;

BARABOO/DELLS  RAIN      37  36  94 NE7       30.06R WCI  32
6HR MIN TEMP:  37; 6HR MAX TEMP:  54; 6HR PCP:  0.02;

LONE ROCK      CLOUDY    43  39  86 NE13      30.05R FOG
6HR MIN TEMP:  43; 6HR MAX TEMP:  59; 6HR PCP:  0.03;

MINERAL POINT  LGT RAIN  45  43  93 NE13G18   30.00R
MADISON        CLOUDY    40  36  86 NE15      30.05R FOG     WCI  32
6HR MIN TEMP:  40; 6HR MAX TEMP:  61; 6HR PCP: TRACE;

MIDDLETON      CLOUDY    42  40  90 N15       30.04R
6HR MIN TEMP:  42; 6HR MAX TEMP:  61;

WATERTOWN      CLOUDY    41  41 100 N8        30.02R FOG
6HR MIN TEMP:  41; 6HR MAX TEMP:  62;

MONROE         CLOUDY    46  41  81 NE18      29.97R
JANESVILLE     MOCLDY    50  43  76 NE10      29.99R
$$

WIZ051-052-058>065-066-070>072-250100-
SOUTHEAST WISCONSIN

CITY           SKY/WX    TMP DP  RH WIND       PRES   REMARKS
MILWAUKEE      CLOUDY    38  34  85 NE17      30.04R WCI  28
6HR MIN TEMP:  38; 6HR MAX TEMP:  55;

WAUKESHA       MOCLDY    39  34  81 NE12G18   30.03R WCI  32
MILWAUKEE/TIMM CLOUDY    39  32  75 NE12      30.04S WCI  32
RACINE         CLOUDY    38  34  85 N16       30.06R FOG     WCI  29
6HR MIN TEMP:  38; 6HR MAX TEMP:  60;

KENOSHA        CLOUDY    39  35  86 N14G28    30.03R FOG     WCI  31
6HR MIN TEMP:  39; 6HR MAX TEMP:  78;

FOND DU LAC    LGT RAIN  37  34  89 NE12      30.08R WCI  29
6HR MIN TEMP:  37; 6HR MAX TEMP:  48; 6HR PCP:  0.07;

SHEBOYGAN      LGT RAIN  36  33  89 NE15G23   30.07R FOG     WCI  27
6HR MIN TEMP:  36; 6HR MAX TEMP:  51; 6HR PCP:  0.05;

WEST BEND      DRIZZLE   37  36  93 NE15      30.03F WCI  28
JUNEAU         CLOUDY    37  36  96 NE10G16   30.04F FOG     WCI  30
6HR MIN TEMP:  37; 6HR MAX TEMP:  58; 6HR PCP:  0.01;

$$

LSZ147-162-250100-
LAKE SUPERIOR

STATION/POSITION TIME  TEMP    WIND        PRES    WAVE
                       AIR SEA DIR/SP/G            HT/PER
                 (UTC) (F)     (DEG/KT/KT) (MB)    (FT/S)
DEVILS ISLAND    0000   35      70/ 12/ 13 1023.9R
PORT WING        2340   36      30/ 10/ 11 1022.4R
SAXON HARBOR     2330   34      40/  6/  6 1021.7S
$$

LMZ867-665-643>646-250100-
LAKE MICHIGAN

STATION/POSITION TIME  TEMP    WIND        PRES    WAVE
                       AIR SEA DIR/SP/G            HT/PER
                 (UTC) (F)     (DEG/KT/KT) (MB)    (FT/S)
CHAMBERS ISLAND  2340   33     360/  5/  5



USA.gov is the U.S. government's official web portal to all federal, state and local government web resources and services.